Wetterdaten: Woche 08.12.14 - 14.12.14 (KW50)
Datum Zeit Temperatur Luftfeuchte Luftdruck Niederschlag Windrichtung Sonnenschein Solar Wind
08.12.2014 00:00 1,8 C 95 % 1021,1 hPa 0,0 l/m W-SW 0,00 h 0 W/m 18,1 km/h (3 Bft)
08.12.2014 01:00 1,8 C 94 % 1020,9 hPa 0,0 l/m W-SW 0,00 h 0 W/m 19,2 km/h (3 Bft)
08.12.2014 02:00 1,8 C 93 % 1020,7 hPa 0,0 l/m SW 0,00 h 0 W/m 16,6 km/h (3 Bft)
08.12.2014 03:00 1,4 C 95 % 1020,7 hPa 0,4 l/m W-SW 0,00 h 0 W/m 15,4 km/h (3 Bft)
08.12.2014 04:00 1,2 C 96 % 1020,4 hPa 0,4 l/m SW 0,00 h 0 W/m 18,5 km/h (3 Bft)
08.12.2014 05:00 1,2 C 97 % 1020,4 hPa 0,4 l/m SW 0,00 h 0 W/m 12,5 km/h (3 Bft)
08.12.2014 06:00 1,1 C 97 % 1020,7 hPa 0,2 l/m SW 0,00 h 0 W/m 6,8 km/h (2 Bft)
08.12.2014 07:00 1,0 C 98 % 1020,9 hPa 0,2 l/m SW 0,00 h 0 W/m 5,9 km/h (2 Bft)
08.12.2014 08:00 0,9 C 98 % 1021,2 hPa 0,0 l/m SW 0,00 h 7 W/m 5,7 km/h (1 Bft)
08.12.2014 09:00 1,2 C 98 % 1021,2 hPa 0,0 l/m SW 0,00 h 35 W/m 4,7 km/h (1 Bft)
08.12.2014 10:00 2,0 C 99 % 1021,0 hPa 0,0 l/m SW 0,00 h 60 W/m 8,7 km/h (2 Bft)
08.12.2014 11:00 2,4 C 99 % 1020,5 hPa 0,0 l/m W 0,00 h 93 W/m 12,0 km/h (2 Bft)
08.12.2014 12:00 3,2 C 96 % 1020,0 hPa 0,0 l/m W 0,25 h 124 W/m 8,3 km/h (2 Bft)
08.12.2014 13:00 3,4 C 92 % 1019,2 hPa 0,0 l/m W-SW 0,33 h 165 W/m 8,8 km/h (2 Bft)
08.12.2014 14:00 3,3 C 91 % 1018,9 hPa 0,0 l/m W-SW 0,00 h 64 W/m 9,0 km/h (2 Bft)
08.12.2014 15:00 3,1 C 92 % 1018,8 hPa 0,0 l/m SW 0,00 h 19 W/m 7,2 km/h (2 Bft)
08.12.2014 16:00 2,8 C 92 % 1018,4 hPa 0,0 l/m SW 0,00 h 6 W/m 3,2 km/h (1 Bft)
08.12.2014 17:00 2,3 C 93 % 1018,3 hPa 0,0 l/m SW 0,00 h 0 W/m 2,1 km/h (1 Bft)
08.12.2014 18:00 2,0 C 94 % 1018,1 hPa 0,0 l/m SW 0,00 h 0 W/m 0,1 km/h (0 Bft)
08.12.2014 19:00 2,1 C 95 % 1017,7 hPa 0,0 l/m N 0,00 h 0 W/m 2,1 km/h (1 Bft)
08.12.2014 20:00 2,1 C 96 % 1017,6 hPa 0,0 l/m SW 0,00 h 0 W/m 1,1 km/h (0 Bft)
08.12.2014 21:00 1,8 C 96 % 1017,4 hPa 0,0 l/m N 0,00 h 0 W/m 0,0 km/h (0 Bft)
08.12.2014 22:00 1,7 C 97 % 1017,4 hPa 0,0 l/m N 0,00 h 0 W/m 0,0 km/h (0 Bft)
08.12.2014 23:00 1,5 C 97 % 1017,6 hPa 0,0 l/m SW 0,00 h 0 W/m 0,4 km/h (0 Bft)
09.12.2014 00:00 1,2 C 97 % 1018,0 hPa 0,0 l/m N 0,00 h 0 W/m 1,1 km/h (0 Bft)
09.12.2014 01:00 0,4 C 97 % 1018,4 hPa 0,0 l/m N 0,00 h 0 W/m 1,2 km/h (1 Bft)
09.12.2014 02:00 -0,5 C 97 % 1019,0 hPa 0,0 l/m N 0,00 h 0 W/m 0,4 km/h (0 Bft)
09.12.2014 03:00 -0,9 C 97 % 1019,8 hPa 0,0 l/m N 0,00 h 0 W/m 1,3 km/h (1 Bft)
09.12.2014 04:00 -0,7 C 97 % 1020,4 hPa 0,0 l/m W-SW 0,00 h 0 W/m 3,6 km/h (1 Bft)
09.12.2014 05:00 -0,7 C 98 % 1021,3 hPa 0,0 l/m W-SW 0,00 h 0 W/m 0,8 km/h (0 Bft)
09.12.2014 06:00 -0,5 C 98 % 1022,0 hPa 0,0 l/m W-SW 0,00 h 0 W/m 2,9 km/h (1 Bft)
09.12.2014 07:00 -0,8 C 98 % 1022,8 hPa 0,0 l/m N 0,00 h 0 W/m 1,1 km/h (0 Bft)
09.12.2014 08:00 -1,2 C 98 % 1024,2 hPa 0,0 l/m W-SW 0,00 h 14 W/m 2,5 km/h (1 Bft)
09.12.2014 09:00 -1,2 C 99 % 1025,5 hPa 0,0 l/m N 0,00 h 27 W/m 1,2 km/h (1 Bft)
09.12.2014 10:00 -0,6 C 99 % 1026,5 hPa 0,2 l/m N 0,00 h 31 W/m 1,1 km/h (0 Bft)
09.12.2014 11:00 0,1 C 99 % 1026,6 hPa 0,0 l/m W-SW 0,00 h 63 W/m 4,5 km/h (1 Bft)
09.12.2014 12:00 0,9 C 99 % 1026,9 hPa 0,0 l/m N 0,00 h 46 W/m 6,7 km/h (2 Bft)
09.12.2014 13:00 1,1 C 98 % 1027,2 hPa 0,0 l/m N 0,00 h 23 W/m 7,8 km/h (2 Bft)
09.12.2014 14:00 1,2 C 97 % 1027,6 hPa 0,0 l/m N-NO 0,00 h 66 W/m 4,5 km/h (1 Bft)
09.12.2014 15:00 1,4 C 97 % 1028,1 hPa 0,0 l/m N-NO 0,00 h 28 W/m 3,6 km/h (1 Bft)
09.12.2014 16:00 1,2 C 96 % 1028,8 hPa 0,0 l/m N 0,00 h 7 W/m 0,4 km/h (0 Bft)
09.12.2014 17:00 0,9 C 96 % 1029,4 hPa 0,0 l/m N 0,00 h 0 W/m 0,3 km/h (0 Bft)
09.12.2014 18:00 0,9 C 96 % 1029,6 hPa 0,0 l/m N 0,00 h 0 W/m 1,2 km/h (1 Bft)
09.12.2014 19:00 0,8 C 96 % 1029,8 hPa 0,0 l/m N-NO 0,00 h 0 W/m 2,7 km/h (1 Bft)
09.12.2014 20:00 0,8 C 96 % 1030,0 hPa 0,0 l/m N 0,00 h 0 W/m 0,5 km/h (0 Bft)
09.12.2014 21:00 0,7 C 96 % 1030,0 hPa 0,0 l/m N 0,00 h 0 W/m 0,0 km/h (0 Bft)
09.12.2014 22:00 -0,0 C 95 % 1029,7 hPa 0,0 l/m N 0,00 h 0 W/m 0,0 km/h (0 Bft)
09.12.2014 23:00 -0,9 C 95 % 1029,6 hPa 0,0 l/m N 0,00 h 0 W/m 0,7 km/h (0 Bft)
10.12.2014 00:00 -0,6 C 96 % 1029,3 hPa 0,0 l/m N 0,00 h 0 W/m 2,3 km/h (1 Bft)
10.12.2014 01:00 -0,6 C 97 % 1029,1 hPa 0,0 l/m N 0,00 h 0 W/m 1,1 km/h (0 Bft)
10.12.2014 02:00 -0,5 C 97 % 1029,0 hPa 0,0 l/m N 0,00 h 0 W/m 0,3 km/h (0 Bft)
10.12.2014 03:00 -0,5 C 97 % 1028,5 hPa 0,0 l/m N-NO 0,00 h 0 W/m 4,3 km/h (1 Bft)
10.12.2014 04:00 -0,7 C 97 % 1028,1 hPa 0,0 l/m SW 0,00 h 0 W/m 8,0 km/h (2 Bft)
10.12.2014 05:00 -0,9 C 97 % 1028,2 hPa 0,0 l/m SW 0,00 h 0 W/m 8,0 km/h (2 Bft)
10.12.2014 06:00 -0,8 C 97 % 1027,7 hPa 0,0 l/m SW 0,00 h 0 W/m 8,3 km/h (2 Bft)
10.12.2014 07:00 -0,7 C 97 % 1027,5 hPa 0,0 l/m S-SW 0,00 h 0 W/m 11,4 km/h (2 Bft)
10.12.2014 08:00 -0,7 C 97 % 1027,1 hPa 0,0 l/m S-SW 0,00 h 10 W/m 15,4 km/h (3 Bft)
10.12.2014 09:00 -0,6 C 97 % 1026,8 hPa 0,0 l/m SW 0,00 h 27 W/m 14,5 km/h (3 Bft)
10.12.2014 10:00 -0,2 C 96 % 1025,8 hPa 0,0 l/m SW 0,00 h 61 W/m 16,9 km/h (3 Bft)
10.12.2014 11:00 0,3 C 96 % 1024,9 hPa 0,0 l/m SW 0,00 h 87 W/m 19,4 km/h (3 Bft)
10.12.2014 12:00 0,8 C 93 % 1024,1 hPa 0,0 l/m SW 0,00 h 52 W/m 17,7 km/h (3 Bft)
10.12.2014 13:00 0,9 C 92 % 1023,5 hPa 0,0 l/m SW 0,00 h 33 W/m 16,5 km/h (3 Bft)
10.12.2014 14:00 0,8 C 95 % 1022,7 hPa 0,0 l/m SW 0,00 h 32 W/m 20,8 km/h (4 Bft)
10.12.2014 15:00 1,3 C 92 % 1022,6 hPa 0,0 l/m SW 0,00 h 22 W/m 17,3 km/h (3 Bft)
10.12.2014 16:00 1,6 C 89 % 1022,4 hPa 0,0 l/m SW 0,00 h 8 W/m 25,6 km/h (4 Bft)
10.12.2014 17:00 1,5 C 91 % 1022,2 hPa 0,0 l/m SW 0,00 h 0 W/m 21,3 km/h (4 Bft)
10.12.2014 18:00 1,8 C 91 % 1021,9 hPa 0,0 l/m W-SW 0,00 h 0 W/m 23,0 km/h (4 Bft)
10.12.2014 19:00 2,2 C 88 % 1021,8 hPa 0,0 l/m W-SW 0,00 h 0 W/m 20,0 km/h (4 Bft)
10.12.2014 20:00 2,1 C 90 % 1021,5 hPa 0,6 l/m W-SW 0,00 h 0 W/m 18,0 km/h (3 Bft)
10.12.2014 21:00 1,9 C 94 % 1021,3 hPa 0,0 l/m W-SW 0,00 h 0 W/m 16,6 km/h (3 Bft)
10.12.2014 22:00 1,8 C 95 % 1020,8 hPa 0,0 l/m SW 0,00 h 0 W/m 11,7 km/h (2 Bft)
10.12.2014 23:00 1,7 C 95 % 1020,9 hPa 0,0 l/m W-SW 0,00 h 0 W/m 11,3 km/h (2 Bft)
11.12.2014 00:00 1,9 C 95 % 1020,0 hPa 0,0 l/m W-SW 0,00 h 0 W/m 14,4 km/h (3 Bft)
11.12.2014 01:00 1,8 C 95 % 1019,6 hPa 0,0 l/m S-SW 0,00 h 0 W/m 9,4 km/h (2 Bft)
11.12.2014 02:00 1,8 C 96 % 1019,5 hPa 0,2 l/m SW 0,00 h 0 W/m 11,5 km/h (2 Bft)
11.12.2014 03:00 2,1 C 97 % 1019,2 hPa 0,0 l/m W-SW 0,00 h 0 W/m 12,2 km/h (2 Bft)
11.12.2014 04:00 2,5 C 97 % 1019,0 hPa 0,0 l/m W-SW 0,00 h 0 W/m 16,2 km/h (3 Bft)
11.12.2014 05:00 2,7 C 97 % 1018,9 hPa 0,0 l/m W-SW 0,00 h 0 W/m 17,0 km/h (3 Bft)
11.12.2014 06:00 2,7 C 97 % 1018,8 hPa 0,0 l/m W-SW 0,00 h 0 W/m 15,3 km/h (3 Bft)
11.12.2014 07:00 3,0 C 97 % 1018,8 hPa 0,0 l/m SW 0,00 h 0 W/m 16,1 km/h (3 Bft)
11.12.2014 08:00 3,2 C 97 % 1018,7 hPa 0,0 l/m SW 0,00 h 16 W/m 21,3 km/h (4 Bft)
11.12.2014 09:00 3,8 C 95 % 1018,5 hPa 0,0 l/m W-SW 0,00 h 55 W/m 23,5 km/h (4 Bft)
11.12.2014 10:00 4,3 C 91 % 1018,6 hPa 0,0 l/m W-SW 0,00 h 96 W/m 28,2 km/h (4 Bft)
11.12.2014 11:00 4,7 C 89 % 1018,2 hPa 0,0 l/m W-SW 0,00 h 87 W/m 27,4 km/h (4 Bft)
11.12.2014 12:00 5,2 C 85 % 1017,9 hPa 0,0 l/m W-SW 0,00 h 77 W/m 25,9 km/h (4 Bft)
11.12.2014 13:00 5,4 C 80 % 1017,4 hPa 0,0 l/m W-SW 0,25 h 119 W/m 33,4 km/h (5 Bft)
11.12.2014 14:00 6,0 C 75 % 1016,9 hPa 0,0 l/m W-SW 0,58 h 138 W/m 35,4 km/h (5 Bft)
11.12.2014 15:00 5,5 C 74 % 1017,1 hPa 0,0 l/m SW 0,00 h 31 W/m 36,6 km/h (5 Bft)
11.12.2014 16:00 5,0 C 78 % 1017,0 hPa 0,0 l/m W 0,00 h 8 W/m 37,5 km/h (5 Bft)
11.12.2014 17:00 4,9 C 79 % 1017,1 hPa 0,0 l/m W-SW 0,00 h 0 W/m 38,9 km/h (6 Bft)
11.12.2014 18:00 4,7 C 80 % 1017,4 hPa 0,0 l/m W-SW 0,00 h 0 W/m 38,9 km/h (6 Bft)
11.12.2014 19:00 4,5 C 82 % 1017,9 hPa 0,0 l/m W-SW 0,00 h 0 W/m 38,5 km/h (5 Bft)
11.12.2014 20:00 4,3 C 85 % 1018,2 hPa 0,0 l/m W-SW 0,00 h 0 W/m 36,3 km/h (5 Bft)
11.12.2014 21:00 4,3 C 87 % 1017,9 hPa 0,0 l/m W-SW 0,00 h 0 W/m 31,7 km/h (5 Bft)
11.12.2014 22:00 4,5 C 87 % 1017,9 hPa 0,0 l/m W-SW 0,00 h 0 W/m 30,4 km/h (5 Bft)
11.12.2014 23:00 4,7 C 85 % 1017,9 hPa 0,0 l/m W-SW 0,00 h 0 W/m 29,8 km/h (5 Bft)
12.12.2014 00:00 4,7 C 84 % 1017,6 hPa 0,0 l/m W-SW 0,00 h 0 W/m 28,3 km/h (4 Bft)
12.12.2014 01:00 4,8 C 83 % 1017,2 hPa 0,0 l/m W-SW 0,00 h 0 W/m 24,8 km/h (4 Bft)
12.12.2014 02:00 4,7 C 83 % 1016,8 hPa 0,0 l/m W-SW 0,00 h 0 W/m 23,1 km/h (4 Bft)
12.12.2014 03:00 4,1 C 85 % 1016,5 hPa 0,0 l/m W-SW 0,00 h 0 W/m 17,8 km/h (3 Bft)
12.12.2014 04:00 3,8 C 85 % 1015,7 hPa 0,0 l/m SW 0,00 h 0 W/m 24,3 km/h (4 Bft)
12.12.2014 05:00 3,6 C 85 % 1014,8 hPa 0,0 l/m W-SW 0,00 h 0 W/m 23,0 km/h (4 Bft)
12.12.2014 06:00 3,6 C 83 % 1014,5 hPa 0,0 l/m W-SW 0,00 h 0 W/m 24,5 km/h (4 Bft)
12.12.2014 07:00 3,5 C 82 % 1013,3 hPa 0,0 l/m W-SW 0,00 h 5 W/m 20,9 km/h (4 Bft)
12.12.2014 08:00 3,5 C 82 % 1012,9 hPa 0,0 l/m W-SW 0,00 h 14 W/m 14,0 km/h (3 Bft)
12.12.2014 09:00 4,0 C 82 % 1012,2 hPa 0,0 l/m W-SW 0,17 h 66 W/m 16,6 km/h (3 Bft)
12.12.2014 10:00 5,4 C 78 % 1012,1 hPa 0,0 l/m W 0,42 h 112 W/m 21,3 km/h (4 Bft)
12.12.2014 11:00 6,5 C 74 % 1011,8 hPa 0,0 l/m W-SW 1,00 h 255 W/m 25,8 km/h (4 Bft)
12.12.2014 12:00 7,7 C 70 % 1010,9 hPa 0,0 l/m W-SW 1,00 h 354 W/m 25,7 km/h (4 Bft)
12.12.2014 13:00 8,0 C 67 % 1010,4 hPa 0,0 l/m W-SW 0,83 h 270 W/m 31,7 km/h (5 Bft)
12.12.2014 14:00 6,8 C 72 % 1010,1 hPa 0,0 l/m W-SW 0,00 h 31 W/m 22,7 km/h (4 Bft)
12.12.2014 15:00 6,3 C 72 % 1010,0 hPa 0,0 l/m SW 0,00 h 14 W/m 16,6 km/h (3 Bft)
12.12.2014 16:00 6,2 C 71 % 1009,9 hPa 0,0 l/m W-SW 0,00 h 8 W/m 16,0 km/h (3 Bft)
12.12.2014 17:00 6,1 C 72 % 1009,8 hPa 0,0 l/m SW 0,00 h 0 W/m 13,6 km/h (3 Bft)
12.12.2014 18:00 5,6 C 74 % 1009,6 hPa 0,0 l/m SW 0,00 h 0 W/m 15,4 km/h (3 Bft)
12.12.2014 19:00 6,2 C 70 % 1009,4 hPa 0,0 l/m SW 0,00 h 0 W/m 16,1 km/h (3 Bft)
12.12.2014 20:00 6,2 C 70 % 1009,0 hPa 0,0 l/m SW 0,00 h 0 W/m 13,3 km/h (3 Bft)
12.12.2014 21:00 5,8 C 70 % 1009,0 hPa 0,0 l/m SW 0,00 h 0 W/m 10,5 km/h (2 Bft)
12.12.2014 22:00 5,3 C 70 % 1008,9 hPa 0,0 l/m SW 0,00 h 0 W/m 5,9 km/h (2 Bft)
12.12.2014 23:00 4,8 C 72 % 1009,6 hPa 0,0 l/m SW 0,00 h 0 W/m 10,6 km/h (2 Bft)
13.12.2014 00:00 3,8 C 76 % 1009,9 hPa 0,0 l/m SW 0,00 h 0 W/m 12,1 km/h (2 Bft)
13.12.2014 01:00 3,7 C 79 % 1009,8 hPa 0,0 l/m SW 0,00 h 0 W/m 11,7 km/h (2 Bft)
13.12.2014 02:00 4,5 C 75 % 1009,9 hPa 0,0 l/m SW 0,00 h 0 W/m 12,3 km/h (3 Bft)
13.12.2014 03:00 3,6 C 77 % 1010,2 hPa 0,0 l/m SW 0,00 h 0 W/m 7,5 km/h (2 Bft)
13.12.2014 04:00 4,1 C 76 % 1010,0 hPa 0,0 l/m W-SW 0,00 h 0 W/m 5,1 km/h (1 Bft)
13.12.2014 05:00 3,0 C 77 % 1010,5 hPa 0,0 l/m N 0,00 h 0 W/m 0,0 km/h (0 Bft)
13.12.2014 06:00 2,0 C 83 % 1010,8 hPa 0,0 l/m SW 0,00 h 0 W/m 7,5 km/h (2 Bft)
13.12.2014 07:00 3,5 C 78 % 1011,3 hPa 0,0 l/m SW 0,00 h 0 W/m 6,0 km/h (2 Bft)
13.12.2014 08:00 2,8 C 77 % 1011,8 hPa 0,0 l/m N 0,00 h 11 W/m 0,0 km/h (0 Bft)
13.12.2014 09:00 1,4 C 84 % 1012,2 hPa 0,0 l/m SW 0,00 h 39 W/m 4,5 km/h (1 Bft)
13.12.2014 10:00 3,3 C 83 % 1012,5 hPa 0,0 l/m SW 0,00 h 102 W/m 10,9 km/h (2 Bft)
13.12.2014 11:00 6,5 C 75 % 1012,4 hPa 0,0 l/m SW 0,42 h 175 W/m 11,8 km/h (2 Bft)
13.12.2014 12:00 8,2 C 71 % 1012,1 hPa 0,0 l/m SW 0,92 h 283 W/m 3,9 km/h (1 Bft)
13.12.2014 13:00 10,6 C 61 % 1011,9 hPa 0,0 l/m SW 1,00 h 268 W/m 14,3 km/h (3 Bft)
13.12.2014 14:00 11,1 C 56 % 1011,9 hPa 0,0 l/m W-SW 0,83 h 158 W/m 20,0 km/h (4 Bft)
13.12.2014 15:00 10,7 C 58 % 1012,3 hPa 0,0 l/m W-SW 0,08 h 44 W/m 18,2 km/h (3 Bft)
13.12.2014 16:00 9,7 C 61 % 1012,8 hPa 0,0 l/m W-SW 0,08 h 10 W/m 14,8 km/h (3 Bft)
13.12.2014 17:00 8,9 C 66 % 1013,2 hPa 0,0 l/m SW 0,00 h 0 W/m 12,1 km/h (2 Bft)
13.12.2014 18:00 8,4 C 67 % 1013,5 hPa 0,0 l/m W-SW 0,00 h 0 W/m 10,5 km/h (2 Bft)
13.12.2014 19:00 8,4 C 68 % 1013,7 hPa 0,0 l/m SW 0,00 h 0 W/m 8,8 km/h (2 Bft)
13.12.2014 20:00 7,6 C 72 % 1013,6 hPa 0,0 l/m SW 0,00 h 0 W/m 4,1 km/h (1 Bft)
13.12.2014 21:00 7,0 C 74 % 1013,6 hPa 0,0 l/m SW 0,00 h 0 W/m 4,3 km/h (1 Bft)
13.12.2014 22:00 6,5 C 74 % 1013,7 hPa 0,0 l/m N 0,00 h 0 W/m 0,3 km/h (0 Bft)
13.12.2014 23:00 5,5 C 79 % 1014,1 hPa 0,0 l/m N 0,00 h 0 W/m 0,7 km/h (0 Bft)
14.12.2014 00:00 5,1 C 82 % 1014,0 hPa 0,0 l/m N 0,00 h 0 W/m 0,4 km/h (0 Bft)
14.12.2014 01:00 4,9 C 84 % 1013,9 hPa 0,0 l/m N 0,00 h 0 W/m 1,2 km/h (1 Bft)
14.12.2014 02:00 5,2 C 85 % 1014,6 hPa 0,0 l/m SW 0,00 h 0 W/m 3,5 km/h (1 Bft)
14.12.2014 03:00 6,4 C 81 % 1014,8 hPa 0,0 l/m SW 0,00 h 0 W/m 7,4 km/h (2 Bft)
14.12.2014 04:00 6,2 C 81 % 1014,7 hPa 0,0 l/m SW 0,00 h 0 W/m 9,1 km/h (2 Bft)
14.12.2014 05:00 5,7 C 86 % 1014,6 hPa 0,2 l/m SW 0,00 h 0 W/m 11,7 km/h (2 Bft)
14.12.2014 06:00 6,7 C 83 % 1014,7 hPa 0,0 l/m SW 0,00 h 0 W/m 12,4 km/h (3 Bft)
14.12.2014 07:00 7,3 C 79 % 1015,2 hPa 0,0 l/m W-SW 0,00 h 0 W/m 9,3 km/h (2 Bft)
14.12.2014 08:00 7,9 C 70 % 1015,5 hPa 0,0 l/m W-SW 0,00 h 13 W/m 12,9 km/h (3 Bft)
14.12.2014 09:00 8,7 C 66 % 1016,1 hPa 0,0 l/m W-SW 0,00 h 61 W/m 15,2 km/h (3 Bft)
14.12.2014 10:00 9,6 C 68 % 1016,2 hPa 0,0 l/m W-SW 0,00 h 69 W/m 6,0 km/h (2 Bft)
14.12.2014 11:00 8,8 C 74 % 1015,9 hPa 0,0 l/m W 0,00 h 56 W/m 4,4 km/h (1 Bft)
14.12.2014 12:00 9,4 C 70 % 1015,4 hPa 0,0 l/m SW 0,00 h 83 W/m 8,7 km/h (2 Bft)
14.12.2014 13:00 10,1 C 66 % 1015,4 hPa 0,0 l/m W-SW 0,00 h 43 W/m 10,9 km/h (2 Bft)
14.12.2014 14:00 10,0 C 67 % 1015,3 hPa 0,0 l/m W 0,00 h 28 W/m 10,7 km/h (2 Bft)
14.12.2014 15:00 9,8 C 70 % 1015,3 hPa 0,0 l/m W 0,00 h 13 W/m 7,9 km/h (2 Bft)
14.12.2014 16:00 9,0 C 75 % 1015,5 hPa 0,0 l/m N 0,00 h 0 W/m 2,5 km/h (1 Bft)
14.12.2014 17:00 7,7 C 81 % 1015,7 hPa 0,0 l/m W-SW 0,00 h 0 W/m 2,0 km/h (1 Bft)
14.12.2014 18:00 6,9 C 84 % 1015,8 hPa 0,0 l/m SW 0,00 h 0 W/m 2,4 km/h (1 Bft)
14.12.2014 19:00 6,5 C 85 % 1016,0 hPa 0,0 l/m SW 0,00 h 0 W/m 2,1 km/h (1 Bft)
14.12.2014 20:00 6,4 C 85 % 1016,2 hPa 0,0 l/m SW 0,00 h 0 W/m 2,0 km/h (1 Bft)
14.12.2014 21:00 6,2 C 86 % 1016,7 hPa 0,2 l/m SW 0,00 h 0 W/m 2,7 km/h (1 Bft)
14.12.2014 22:00 6,4 C 91 % 1017,0 hPa 1,2 l/m SW 0,00 h 0 W/m 8,0 km/h (2 Bft)
14.12.2014 23:00 6,3 C 93 % 1016,8 hPa 0,2 l/m N 0,00 h 0 W/m 3,2 km/h (1 Bft)
Min-Datum _ 09.12.14 13.12.14 12.12.14 - - - - 08.12.14
_ Min-Zeit 08:45 13:55 22:05 - - - - 06:45
Minimum _ -1,3 C 53 % 1008,6 hPa - - - - 0,0 km/h (0 Bft)
Max-Datum _ 13.12.14 08.12.14 09.12.14 14.12.14 - 08.12.14 12.12.14 11.12.14
_ Max-Zeit 13:55 10:00 20:20 22:00 - 12:00 12:55 13:30
Maximum _ 11,6 C 99 % 1030,2 hPa 1,2 l/m - 0,08 h 420 W/m 48,3 km/h
W-SW (6 Bft)
Durchschnitt _ 3,6 C 86 % 1018,3 hPa #4,4 l/m SW #8:10 h 70 W/m 12,0 km/h (2 Bft)